Regional Weather Roundup
Issued by NWS

Home | Current Version | Previous Version | Text Only | Print | Product List | Glossary On
Versions: 1 2 3 4 5 6 7 8 9 10 11 12 13 14 15 16 17 18 19 20 21 22 23 24 25 26 27 28 29 30 31 32 33 34 35 36 37 38 39 40 41 42 43 44 45 46 47 48 49 50
000
ASUS43 KDTX 241801
RWRMI
MICHIGAN HOURLY REGIONAL WEATHER ROUNDUP
NATIONAL WEATHER SERVICE DETROIT/PONTIAC MI
200 PM EDT SAT JUN 24 2017

NOTE: "FAIR" INDICATES FEW OR NO CLOUDS BELOW 12,000 FEET WITH NO
SIGNIFICANT WEATHER AND/OR OBSTRUCTION TO VISIBILITY.

MIZ047>049-052>055-059>063-066>070-074>076-081>083-241900-
SOUTHEAST LOWER MICHIGAN

CITY           SKY/WX    TMP DP  RH WIND       PRES   REMARKS
ADRIAN         MOSUNNY   75  52  44 W16G22    29.92S
6HR MIN TEMP:  64; 6HR MAX TEMP:  76;

ALMA           CLOUDY    72  52  49 SW13G22   29.87S
ANN ARBOR      PTSUNNY   74  55  51 SW14      29.89S
BAD AXE        PTSUNNY   73  51  45 W13G21    29.84S
6HR MIN TEMP:  62; 6HR MAX TEMP:  73;

CARO           MOSUNNY   74  54  49 W10G20    29.84F
DETROIT CITY   MOSUNNY   76  51  41 W12G21    29.87R
6HR MIN TEMP:  66; 6HR MAX TEMP:  77;

DETROIT        MOSUNNY   76  52  43 W17G24    29.89S
6HR MIN TEMP:  66; 6HR MAX TEMP:  78;

FLINT          MOSUNNY   75  52  44 W13       29.87S
6HR MIN TEMP:  63; 6HR MAX TEMP:  76;

GROSSE ILE     MOSUNNY   75  52  44 W12G21    29.88S
6HR MIN TEMP:  65; 6HR MAX TEMP:  77;

HILLSDALE      MOSUNNY   72  54  53 W12       29.93S
HOWELL         PTSUNNY   74  50  42 W13G18    29.88F
6HR MIN TEMP:  63; 6HR MAX TEMP:  75;


CITY           SKY/WX    TMP DP  RH WIND       PRES   REMARKS
JACKSON        PTSUNNY   75  54  47 W12G17    29.91S
6HR MIN TEMP:  63; 6HR MAX TEMP:  75;

LAMBERTVILLE   PTSUNNY   76  52  44 W14G20    29.91S
6HR MIN TEMP:  64; 6HR MAX TEMP:  76;

LANSING        MOSUNNY   76  53  44 SW23G29   29.89F
6HR MIN TEMP:  65; 6HR MAX TEMP:  77;

LAPEER         FAIR      74  51  43 W15       29.87S
6HR MIN TEMP:  63; 6HR MAX TEMP:  74;

MASON          MOSUNNY   74  53  48 W12G23    29.90S
MONROE         MOSUNNY   76  55  46 SW15G24   29.89S
6HR MIN TEMP:  65; 6HR MAX TEMP:  78;

MT. CLEMENS    MOSUNNY   78  52  40 W17G25    29.85R
6HR MIN TEMP:  66; 6HR MAX TEMP:  78;

PONTIAC        PTSUNNY   75  51  43 W18G26    29.87S
6HR MIN TEMP:  63; 6HR MAX TEMP:  76;

PORT HOPE        N/A     73  54  51 W9G18     29.81F
6HR MIN TEMP:  64; 6HR MAX TEMP:  73;

PORT HURON     PTSUNNY   73  50  43 W6G16     29.85S
TRI CITIES     LGT RAIN  69  56  62 W17G26    29.86S
6HR MIN TEMP:  63; 6HR MAX TEMP:  74; 6HR PCP: TRACE;

MIDLAND        PTSUNNY   72  51  48 SW12      29.84S
6HR MIN TEMP:  64; 6HR MAX TEMP:  75;

TROY           CLOUDY    74  47  37 W10G20    29.90R
SAGINAW HB     PTSUNNY   73  46  38 SW14G23   29.84F
$$
MIZ043>046-050>051-056>058-064>065-071>073-077>080-241900-
SOUTHWEST LOWER MICHIGAN

CITY           SKY/WX    TMP DP  RH WIND       PRES   REMARKS
BATTLE CREEK   MOSUNNY   73  54  51 W16G24    29.95R
6HR MIN TEMP:  63; 6HR MAX TEMP:  75;

BENTON HARBOR  MOSUNNY   69  55  60 NW10      29.98S
6HR MIN TEMP:  65; 6HR MAX TEMP:  71;

BIG RAPIDS     PTSUNNY   71  52  51 W15G22    29.87R
6HR MIN TEMP:  61; 6HR MAX TEMP:  71;

COLDWATER      PTSUNNY   72  53  50 W16G24    29.95R
6HR MIN TEMP:  63; 6HR MAX TEMP:  74;

FREMONT        PTSUNNY   70  53  54 W16G26    29.91R
HOLLAND        PTSUNNY   68  55  63 W12G24    29.97R
6HR MIN TEMP:  64; 6HR MAX TEMP:  68;

GRAND RAPIDS   PTSUNNY   71  58  63 W22G30    29.92R
6HR MIN TEMP:  64; 6HR MAX TEMP:  71;

IONIA          FAIR      73  54  52 SW24G30   29.89R
6HR MIN TEMP:  63; 6HR MAX TEMP:  74;

KALAMAZOO      PTSUNNY   71  52  50 W16G25    29.97R
6HR MIN TEMP:  64; 6HR MAX TEMP:  73;

LUDINGTON      PTSUNNY   66  56  71 W8        29.90S
6HR MIN TEMP:  61; 6HR MAX TEMP:  66;

MARSHALL       PTSUNNY   76  54  47 W13G25    29.93R
6HR MIN TEMP:  64; 6HR MAX TEMP:  76;

MOUNT PLEASANT HVY RAIN  61  52  73 NW7G21    29.86R
6HR MIN TEMP:  61; 6HR MAX TEMP:  73; 6HR PCP:  0.09;

MUSKEGON       PTSUNNY   69  57  65 W14       29.94R
6HR MIN TEMP:  64; 6HR MAX TEMP:  70;

SOUTH HAVEN    PTSUNNY   69  57  67 NW9       29.98S
$$
MIZ016>042-241900-
NORTHERN LOWER MICHIGAN

CITY           SKY/WX    TMP DP  RH WIND       PRES   REMARKS
ALPENA         PTSUNNY   70  55  59 NW15      29.82R THUNDER
6HR MIN TEMP:  60; 6HR MAX TEMP:  74;

BEAVER ISLAND  MOSUNNY   68  54  60 W9        29.85R
BELLAIRE       MOSUNNY   68  50  52 NW8       29.85F
6HR MIN TEMP:  61; 6HR MAX TEMP:  69;

CADILLAC       PTSUNNY   68  51  55 W15G21    29.86R
CHARLEVOIX     SUNNY     65  53  65 W8        29.89S
FRANKFORT      PTSUNNY   65  54  68 W8        29.88S
GAYLORD        MOSUNNY   69  48  47 W9        29.85R
6HR MIN TEMP:  58; 6HR MAX TEMP:  69;

GRAYLING       CLOUDY    71  51  48 W12       29.85S
6HR MIN TEMP:  58; 6HR MAX TEMP:  72;

HARBOR SPRINGS MOSUNNY   63  57  80 W10G16    29.85R
HOUGHTON LAKE  LGT RAIN  63  54  72 NW10      29.86R
6HR MIN TEMP:  61; 6HR MAX TEMP:  72; 6HR PCP: TRACE;

MANISTEE       MOSUNNY   66  56  70 W10       29.89S
OSCODA         LGT RAIN  66  55  68 W5G21     29.81R
6HR MIN TEMP:  63; 6HR MAX TEMP:  76; 6HR PCP:  0.01;

PELLSTON       SUNNY     70  49  47 W9        29.84R
6HR MIN TEMP:  59; 6HR MAX TEMP:  70;

ROGERS CITY    SUNNY     64  53  67 N10       29.84R
TRAVERSE CITY  CLOUDY    71  53  52 NW12      29.84R
6HR MIN TEMP:  62; 6HR MAX TEMP:  72;

$$
MIZ007>008-015-241900-
EASTERN UPPER MICHIGAN

CITY           SKY/WX    TMP DP  RH WIND       PRES   REMARKS
KINROSS        MOSUNNY   68  48  48 N13       29.83R
6HR MIN TEMP:  50; 6HR MAX TEMP:  68;

MACKINAC ISLAN MOSUNNY   63  55  75 SW10      29.84R
6HR MIN TEMP:  56; 6HR MAX TEMP:  63;

NEWBERRY       MOSUNNY   67  46  47 CALM      29.83S
6HR MIN TEMP:  52; 6HR MAX TEMP:  68;

S. S. MARIE    SUNNY     68  50  52 W12       29.81R
6HR MIN TEMP:  52; 6HR MAX TEMP:  69;

MUNISING         N/A     59  53  80 NE8       29.86S
6HR MIN TEMP:  54; 6HR MAX TEMP:  59;

$$
MIZ004>006-011>014-085-241900-
CENTRAL UPPER MICHIGAN

CITY           SKY/WX    TMP DP  RH WIND       PRES   REMARKS
MANISTIQUE     CLOUDY    68  52  56 NW10      29.83S
6HR MIN TEMP:  53; 6HR MAX TEMP:  71;

ESCANABA       LGT RAIN  63  56  78 S9        29.85R
6HR MIN TEMP:  56; 6HR MAX TEMP:  68; 6HR PCP: TRACE;

MENOMINEE      LGT RAIN  60  56  86 W7        29.89
6HR MIN TEMP:  57; 6HR MAX TEMP:  64; 6HR PCP:  0.04;

SAWYER-GWINN   RAIN      55  52  88 N15       29.88R
$$
MIZ001>003-009>011-084-241900-
WESTERN UPPER MICHIGAN

CITY           SKY/WX    TMP DP  RH WIND       PRES   REMARKS
IRON MOUNTAIN  CLOUDY    60  54  80 NW10      29.87S
6HR MIN TEMP:  55; 6HR MAX TEMP:  61; 6HR PCP:  0.04;

HOUGHTON       CLOUDY    56  51  84 W9        29.88R
6HR MIN TEMP:  53; 6HR MAX TEMP:  58; 6HR PCP: TRACE;

COPPER HARBOR    N/A     53  49  86 N10       29.87R
6HR MIN TEMP:  53; 6HR MAX TEMP:  57;

IRONWOOD       CLOUDY    55  50  83 W10       29.92S
6HR MIN TEMP:  53; 6HR MAX TEMP:  56; 6HR PCP: TRACE;

$$

ABBREVIATIONS USED IN REMARKS
   TC - TEMPERATURE IN CELSIUS
  WCI - WIND CHILL INDEX
   HX - HEAT INDEX
  VSB - VISIBILITY





USA.gov is the U.S. government's official web portal to all federal, state and local government web resources and services.